| time (UTC) | temp F | wind direction | speed MPH | gust MPH | rain 1hr in | rain 24hr in | rain mn in | humidity % | barometer mb |
| 20260508142521 | 73 | 268 | 0.0 | 0.0 | 0.00 | 0.20 | 0.20 | 99 | 1020.8 |
| 20260508141518 | 74 | 285 | 0.0 | 0.0 | 0.00 | 0.20 | 0.20 | 99 | 1020.8 |
| 20260508140518 | 74 | 271 | 0.0 | 0.0 | 0.00 | 0.20 | 0.20 | 99 | 1020.7 |
| 20260508135601 | 74 | 301 | 0.0 | 0.0 | 0.00 | 0.20 | 0.20 | 99 | 1020.7 |
| 20260508134518 | 74 | 231 | 0.0 | 0.0 | 0.01 | 0.20 | 0.20 | 99 | 1020.8 |
| 20260508133520 | 74 | 177 | 0.0 | 0.0 | 0.02 | 0.20 | 0.20 | 99 | 1020.6 |
| 20260508132523 | 74 | 203 | 0.0 | 0.0 | 0.04 | 0.20 | 0.20 | 99 | 1020.5 |
| 20260508131518 | 74 | 198 | 0.0 | 0.0 | 0.04 | 0.20 | 0.20 | 99 | 1020.5 |
| 20260508130602 | 74 | 248 | 0.0 | 0.0 | 0.04 | 0.20 | 0.20 | 99 | 1020.3 |
| 20260508125520 | 74 | 249 | 0.0 | 0.0 | 0.04 | 0.20 | 0.20 | 99 | 1020.3 |
| 20260508123539 | 74 | 281 | 0.0 | 0.0 | 0.01 | 0.18 | 0.18 | 99 | 1020.3 |
| 20260508122521 | 74 | 265 | 0.0 | 0.0 | 0.00 | 0.17 | 0.17 | 99 | 1019.9 |
| 20260508121520 | 74 | 221 | 0.0 | 0.0 | 0.00 | 0.17 | 0.17 | 99 | 1019.8 |
| 20260508120521 | 74 | 249 | 0.0 | 0.0 | 0.00 | 0.17 | 0.17 | 99 | 1019.7 |
| 20260508115523 | 74 | 271 | 0.0 | 0.0 | 0.00 | 0.17 | 0.17 | 99 | 1019.6 |
| 20260508114519 | 74 | 250 | 0.0 | 0.0 | 0.01 | 0.17 | 0.17 | 99 | 1019.5 |
| 20260508113520 | 74 | 284 | 0.0 | 0.0 | 0.02 | 0.17 | 0.17 | 99 | 1019.5 |
| 20260508112521 | 74 | 259 | 0.0 | 0.0 | 0.08 | 0.17 | 0.17 | 99 | 1019.4 |
| 20260508111518 | 74 | 267 | 0.0 | 0.0 | 0.11 | 0.17 | 0.17 | 99 | 1019.3 |
| 20260508110518 | 74 | 274 | 0.0 | 0.0 | 0.12 | 0.17 | 0.17 | 99 | 1019.2 |
| 20260508105540 | 74 | 313 | 0.0 | 0.0 | 0.13 | 0.17 | 0.17 | 99 | 1019.0 |
| 20260508104603 | 74 | 77 | 0.0 | 0.0 | 0.13 | 0.15 | 0.15 | 99 | 1019.0 |
| 20260508103518 | 74 | 255 | 0.0 | 0.0 | 0.12 | 0.14 | 0.14 | 99 | 1018.8 |
| 20260508102518 | 75 | 335 | 0.0 | 0.0 | 0.06 | 0.08 | 0.08 | 99 | 1018.8 |
| 20260508101520 | 75 | 249 | 0.0 | 0.0 | 0.05 | 0.06 | 0.06 | 99 | 1018.8 |
| 20260508100542 | 75 | 9 | 0.0 | 0.0 | 0.04 | 0.05 | 0.05 | 98 | 1018.6 |
| 20260508095519 | 76 | 20 | 0.0 | 5.0 | 0.02 | 0.04 | 0.04 | 97 | 1018.6 |
| 20260508094518 | 76 | 351 | 0.0 | 5.0 | 0.01 | 0.02 | 0.02 | 96 | 1018.5 |
| 20260508093520 | 77 | 11 | 1.0 | 7.0 | 0.01 | 0.02 | 0.02 | 95 | 1018.4 |
| 20260508092518 | 77 | 282 | 0.0 | 0.0 | 0.01 | 0.02 | 0.02 | 95 | 1018.2 |
| 20260508091520 | 77 | 241 | 0.0 | 0.0 | 0.00 | 0.01 | 0.01 | 93 | 1018.0 |
| 20260508090521 | 78 | 329 | 0.0 | 0.0 | 0.00 | 0.01 | 0.01 | 93 | 1017.9 |
| 20260508085518 | 78 | 71 | 0.0 | 0.0 | 0.00 | 0.01 | 0.01 | 91 | 1017.8 |
| 20260508084519 | 78 | 243 | 0.0 | 0.0 | 0.00 | 0.01 | 0.01 | 90 | 1017.9 |
| 20260508083518 | 78 | 16 | 0.0 | 2.0 | 0.00 | 0.01 | 0.01 | 89 | 1017.7 |
| 20260508082521 | 79 | 9 | 0.0 | 0.0 | 0.00 | 0.01 | 0.01 | 89 | 1017.8 |
| 20260508081521 | 79 | 5 | 0.0 | 5.0 | 0.00 | 0.01 | 0.01 | 89 | 1017.7 |
| 20260508080518 | 79 | 42 | 0.0 | 5.0 | 0.00 | 0.01 | 0.01 | 89 | 1017.6 |
| 20260508075520 | 79 | 357 | 0.0 | 5.0 | 0.00 | 0.01 | 0.01 | 88 | 1017.7 |
| 20260508074521 | 79 | 13 | 1.0 | 10.0 | 0.00 | 0.01 | 0.01 | 88 | 1017.5 |
| 20260508073518 | 79 | 9 | 0.0 | 7.0 | 0.00 | 0.01 | 0.01 | 88 | 1017.4 |
| 20260508072518 | 79 | 343 | 0.0 | 0.0 | 0.00 | 0.01 | 0.01 | 89 | 1017.4 |
| 20260508071518 | 79 | 25 | 3.0 | 15.0 | 0.00 | 0.01 | 0.01 | 89 | 1017.6 |
| 20260508070540 | 79 | 23 | 0.0 | 5.0 | 0.00 | 0.01 | 0.01 | 89 | 1017.8 |
| 20260508065521 | 79 | 30 | 1.0 | 7.0 | 0.00 | 0.01 | 0.01 | 89 | 1017.8 |
| 20260508064521 | 78 | 46 | 0.0 | 2.0 | 0.00 | 0.01 | 0.01 | 90 | 1017.8 |
| 20260508063524 | 78 | 60 | 2.0 | 12.0 | 0.00 | 0.01 | 0.01 | 90 | 1017.9 |
| 20260508062602 | 78 | 19 | 1.0 | 10.0 | 0.00 | 0.01 | 0.01 | 91 | 1018.0 |
| 20260508061521 | 78 | 42 | 3.0 | 12.0 | 0.00 | 0.01 | 0.01 | 91 | 1017.9 |
| 20260508060518 | 78 | 68 | 1.0 | 7.0 | 0.00 | 0.01 | 0.01 | 92 | 1018.0 |
| 20260508055519 | 78 | 37 | 1.0 | 12.0 | 0.01 | 0.01 | 0.01 | 92 | 1018.1 |
| 20260508054521 | 78 | 41 | 2.0 | 12.0 | 0.01 | 0.01 | 0.01 | 92 | 1018.3 |
| 20260508053520 | 78 | 46 | 1.0 | 7.0 | 0.01 | 0.01 | 0.01 | 93 | 1018.3 |
| 20260508052523 | 78 | 44 | 1.0 | 5.0 | 0.01 | 0.01 | 0.01 | 95 | 1018.3 |
| 20260508051520 | 79 | 42 | 1.0 | 7.0 | 0.01 | 0.01 | 0.01 | 95 | 1018.2 |
| 20260508050542 | 79 | 354 | 1.0 | 10.0 | 0.01 | 0.01 | 0.01 | 93 | 1018.3 |
| 20260508045526 | 80 | 37 | 1.0 | 10.0 | 0.00 | 0.00 | 0.00 | 92 | 1018.4 |
| 20260508044518 | 81 | 50 | 1.0 | 12.0 | 0.00 | 0.00 | 0.00 | 94 | 1018.3 |
| 20260508043523 | 82 | 52 | 3.0 | 12.0 | 0.00 | 0.00 | 0.00 | 91 | 1018.3 |
| 20260508042539 | 83 | 56 | 2.0 | 12.0 | 0.00 | 0.00 | 0.00 | 89 | 1018.3 |
| 20260508041520 | 84 | 45 | 2.0 | 10.0 | 0.00 | 0.00 | 0.00 | 84 | 1018.2 |
| 20260508040521 | 83 | 19 | 1.0 | 7.0 | 0.00 | 0.00 | 0.00 | 83 | 1018.4 |
| 20260508035519 | 84 | 46 | 2.0 | 12.0 | 0.00 | 0.00 | 0.00 | 83 | 1018.3 |
| 20260508034521 | 84 | 74 | 2.0 | 12.0 | 0.00 | 0.00 | 0.00 | 82 | 1018.5 |
| 20260508033519 | 84 | 53 | 2.0 | 17.0 | 0.00 | 0.00 | 0.00 | 82 | 1018.6 |
| 20260508032522 | 84 | 29 | 2.0 | 12.0 | 0.00 | 0.00 | 0.00 | 82 | 1018.6 |
| 20260508031559 | 85 | 58 | 3.0 | 15.0 | 0.00 | 0.00 | 0.00 | 82 | 1018.6 |
| 20260508030521 | 85 | 73 | 2.0 | 15.0 | 0.00 | 0.00 | 0.00 | 82 | 1018.6 |
| 20260508025520 | 86 | 68 | 2.0 | 10.0 | 0.00 | 0.00 | 0.00 | 79 | 1018.7 |
| 20260508024521 | 85 | 352 | 0.0 | 5.0 | 0.00 | 0.00 | 0.00 | 78 | 1018.7 |
| 20260508023518 | 85 | 21 | 0.0 | 5.0 | 0.00 | 0.00 | 0.00 | 79 | 1018.6 |
| 20260508022519 | 85 | 65 | 1.0 | 7.0 | 0.00 | 0.00 | 0.00 | 80 | 1018.6 |
| 20260508021601 | 85 | 59 | 0.0 | 5.0 | 0.00 | 0.00 | 0.00 | 79 | 1018.7 |
| 20260508020521 | 85 | 95 | 0.0 | 2.0 | 0.00 | 0.00 | 0.00 | 80 | 1018.7 |
| 20260508015520 | 85 | 38 | 0.0 | 2.0 | 0.00 | 0.00 | 0.00 | 79 | 1018.7 |
| 20260508014521 | 85 | 317 | 0.0 | 2.0 | 0.00 | 0.00 | 0.00 | 80 | 1018.8 |
| 20260508013538 | 85 | 26 | 0.0 | 2.0 | 0.00 | 0.00 | 0.00 | 80 | 1018.8 |
| 20260508012517 | 85 | 36 | 0.0 | 0.0 | 0.00 | 0.00 | 0.00 | 78 | 1018.7 |
| 20260508011541 | 84 | 313 | 0.0 | 0.0 | 0.00 | 0.00 | 0.00 | 78 | 1018.7 |
| 20260508010541 | 84 | 89 | 0.0 | 0.0 | 0.00 | 0.00 | 0.00 | 77 | 1018.8 |
| 20260508005520 | 83 | 261 | 0.0 | 0.0 | 0.00 | 0.00 | 0.00 | 79 | 1018.7 |
| 20260508004520 | 82 | 251 | 0.0 | 0.0 | 0.00 | 0.00 | 0.00 | 80 | 1018.7 |
| 20260508003520 | 81 | 207 | 0.0 | 0.0 | 0.00 | 0.00 | 0.00 | 82 | 1018.7 |
| 20260508002517 | 81 | 250 | 0.0 | 0.0 | 0.00 | 0.00 | 0.00 | 84 | 1018.5 |
| 20260508001518 | 80 | 224 | 0.0 | 0.0 | 0.00 | 0.00 | 0.00 | 84 | 1018.4 |
| 20260508000517 | 79 | 234 | 0.0 | 0.0 | 0.00 | 0.00 | 0.00 | 85 | 1018.2 |
| 20260507235521 | 78 | 214 | 0.0 | 0.0 | 0.00 | 0.00 | 0.00 | 86 | 1018.2 |
| 20260507234539 | 77 | 206 | 0.0 | 0.0 | 0.00 | 0.00 | 0.00 | 88 | 1018.4 |
| 20260507233538 | 77 | 225 | 0.0 | 0.0 | 0.00 | 0.00 | 0.00 | 89 | 1018.2 |
| 20260507232521 | 77 | 187 | 0.0 | 0.0 | 0.00 | 0.00 | 0.00 | 91 | 1018.2 |
| 20260507231520 | 77 | 199 | 0.0 | 0.0 | 0.00 | 0.00 | 0.00 | 92 | 1018.1 |
| 20260507230517 | 76 | 237 | 0.0 | 0.0 | 0.00 | 0.00 | 0.00 | 90 | 1017.9 |
| 20260507225517 | 75 | 206 | 0.0 | 0.0 | 0.00 | 0.00 | 0.00 | 89 | 1017.9 |
| 20260507224541 | 74 | 197 | 0.0 | 0.0 | 0.00 | 0.00 | 0.00 | 91 | 1017.9 |
| 20260507223520 | 72 | 273 | 0.0 | 0.0 | 0.00 | 0.00 | 0.00 | 94 | 1017.6 |
| 20260507222521 | 72 | 209 | 0.0 | 0.0 | 0.00 | 0.00 | 0.00 | 98 | 1017.6 |
| 20260507221521 | 71 | 240 | 0.0 | 0.0 | 0.00 | 0.00 | 0.00 | 99 | 1017.5 |
| 20260507220519 | 71 | 201 | 0.0 | 0.0 | 0.00 | 0.00 | 0.00 | 99 | 1017.5 |
| 20260507215520 | 71 | 248 | 0.0 | 0.0 | 0.00 | 0.00 | 0.00 | 99 | 1017.4 |
| 20260507214520 | 71 | 268 | 0.0 | 0.0 | 0.00 | 0.00 | 0.00 | 99 | 1017.2 |
| 20260507213517 | 71 | 256 | 0.0 | 0.0 | 0.00 | 0.00 | 0.00 | 99 | 1017.0 |
| 20260507212517 | 71 | 298 | 0.0 | 0.0 | 0.00 | 0.00 | 0.00 | 99 | 1017.0 |
| 20260507211522 | 71 | 254 | 0.0 | 0.0 | 0.00 | 0.00 | 0.00 | 99 | 1017.1 |
| 20260507210538 | 71 | 246 | 0.0 | 0.0 | 0.00 | 0.00 | 0.00 | 99 | 1017.1 |
| 20260507205539 | 71 | 231 | 0.0 | 0.0 | 0.00 | 0.00 | 0.00 | 99 | 1017.0 |
| 20260507204517 | 71 | 187 | 0.0 | 0.0 | 0.00 | 0.00 | 0.00 | 99 | 1016.9 |
| 20260507203520 | 71 | 222 | 0.0 | 0.0 | 0.00 | 0.00 | 0.00 | 99 | 1016.8 |
| 20260507202517 | 71 | 317 | 0.0 | 0.0 | 0.00 | 0.00 | 0.00 | 99 | 1016.6 |
| 20260507201521 | 71 | 173 | 0.0 | 0.0 | 0.00 | 0.00 | 0.00 | 99 | 1016.5 |
| 20260507200537 | 71 | 278 | 0.0 | 0.0 | 0.00 | 0.00 | 0.00 | 99 | 1016.5 |
| 20260507195517 | 71 | 322 | 0.0 | 0.0 | 0.00 | 0.00 | 0.00 | 99 | 1016.4 |
| 20260507194517 | 72 | 283 | 0.0 | 0.0 | 0.00 | 0.00 | 0.00 | 99 | 1016.5 |
| 20260507193520 | 72 | 189 | 0.0 | 0.0 | 0.00 | 0.00 | 0.00 | 99 | 1016.3 |
| 20260507192517 | 72 | 266 | 0.0 | 0.0 | 0.00 | 0.00 | 0.00 | 99 | 1016.2 |
| 20260507191520 | 72 | 289 | 0.0 | 0.0 | 0.00 | 0.00 | 0.00 | 99 | 1016.3 |
| 20260507190539 | 72 | 270 | 0.0 | 0.0 | 0.00 | 0.00 | 0.00 | 99 | 1016.2 |
| 20260507185520 | 72 | 268 | 0.0 | 0.0 | 0.00 | 0.00 | 0.00 | 99 | 1016.2 |
| 20260507184543 | 72 | 205 | 0.0 | 0.0 | 0.00 | 0.00 | 0.00 | 99 | 1016.2 |
| 20260507183523 | 73 | 197 | 0.0 | 0.0 | 0.00 | 0.00 | 0.00 | 99 | 1016.4 |
| 20260507182522 | 73 | 257 | 0.0 | 0.0 | 0.00 | 0.00 | 0.00 | 99 | 1016.4 |
| 20260507181541 | 73 | 189 | 0.0 | 0.0 | 0.00 | 0.00 | 0.00 | 99 | 1016.5 |
| 20260507180519 | 73 | 249 | 0.0 | 0.0 | 0.00 | 0.00 | 0.00 | 99 | 1016.6 |
| 20260507175520 | 73 | 350 | 0.0 | 0.0 | 0.00 | 0.00 | 0.00 | 99 | 1016.8 |
| 20260507174521 | 73 | 255 | 0.0 | 0.0 | 0.00 | 0.00 | 0.00 | 99 | 1016.8 |
| 20260507173524 | 73 | 271 | 0.0 | 0.0 | 0.00 | 0.00 | 0.00 | 99 | 1016.8 |
| 20260507172519 | 73 | 249 | 0.0 | 0.0 | 0.00 | 0.00 | 0.00 | 99 | 1016.8 |
| 20260507171520 | 73 | 257 | 0.0 | 0.0 | 0.00 | 0.00 | 0.00 | 99 | 1016.8 |
| 20260507170522 | 73 | 300 | 0.0 | 0.0 | 0.00 | 0.00 | 0.00 | 99 | 1016.8 |
| 20260507165519 | 73 | 201 | 0.0 | 0.0 | 0.00 | 0.00 | 0.00 | 99 | 1016.9 |
| 20260507164545 | 74 | 248 | 0.0 | 0.0 | 0.00 | 0.00 | 0.00 | 99 | 1017.0 |
| 20260507163518 | 74 | 235 | 0.0 | 0.0 | 0.00 | 0.00 | 0.00 | 99 | 1017.0 |
| 20260507162522 | 74 | 175 | 0.0 | 0.0 | 0.00 | 0.00 | 0.00 | 99 | 1017.1 |
| 20260507161520 | 74 | 259 | 0.0 | 0.0 | 0.00 | 0.00 | 0.00 | 99 | 1017.2 |
| 20260507160539 | 74 | 311 | 0.0 | 0.0 | 0.00 | 0.00 | 0.00 | 99 | 1017.2 |
| 20260507155538 | 74 | 330 | 0.0 | 0.0 | 0.00 | 0.00 | 0.00 | 98 | 1017.3 |
| 20260507154520 | 74 | 241 | 0.0 | 0.0 | 0.00 | 0.00 | 0.00 | 98 | 1017.5 |
| 20260507153540 | 74 | 249 | 0.0 | 0.0 | 0.00 | 0.00 | 0.00 | 98 | 1017.6 |
| 20260507152522 | 74 | 283 | 0.0 | 0.0 | 0.00 | 0.00 | 0.00 | 98 | 1017.7 |
| 20260507151542 | 74 | 269 | 0.0 | 0.0 | 0.00 | 0.00 | 0.00 | 98 | 1017.8 |
| 20260507150523 | 75 | 258 | 0.0 | 0.0 | 0.00 | 0.00 | 0.00 | 97 | 1018.0 |
| 20260507145521 | 75 | 263 | 0.0 | 0.0 | 0.00 | 0.00 | 0.00 | 97 | 1018.0 |
| 20260507144540 | 75 | 271 | 0.0 | 0.0 | 0.00 | 0.00 | 0.00 | 97 | 1018.0 |
| 20260507143519 | 75 | 290 | 0.0 | 0.0 | 0.00 | 0.00 | 0.00 | 97 | 1017.9 |